Date String (YYYY-MM-DD hh:mm:ss) UTC,Instrument flags,Ambient pressure (hPa),Sample flow (lpm),Bypass flow (lpm),Sample temperature (°C),Ambient temperature (°C),ASC tube jacket temperature (°C),LED temperature (°C),Box temperature (°C),Sample RH (%),Span deviation,Mass concentration (μg/m³),Mass concentration (μg/m³),Mass concentration (μg/m³)
DateTimeUTC,F1_M11,P_M11,Q1_M11,Q2_M11,T1_M11,T2_M11,T3_M11,T4_M11,T5_M11,U1_M11,ZSPAN_M11,X2_M11,X0_M11,X1_M11
2023-05-03 13:00:00,,0828.9,4.99,0.00,27.9,26.5,00.0,36.3,29.6,18.1,0000.0,0005.60,0014.53,0003.94
2023-05-03 13:01:00,,0828.9,4.99,0.00,27.9,26.5,00.0,36.3,29.6,18.1,0000.0,0005.62,0014.24,0003.94
2023-05-03 13:02:00,,0829.0,5.00,0.00,27.9,26.4,00.0,36.3,29.6,18.1,0000.0,0005.68,0013.95,0003.94
2023-05-03 13:03:00,,0828.9,5.00,0.00,27.9,26.4,00.0,36.3,29.6,18.1,0000.0,0005.75,0014.12,0003.95
2023-05-03 13:04:00,,0828.9,5.01,0.00,27.9,26.4,00.0,36.3,29.6,18.1,0000.0,0005.75,0014.00,0003.95
2023-05-03 13:05:00,,0828.9,5.01,0.00,27.9,26.3,00.0,36.3,29.6,18.1,0000.0,0005.71,0012.70,0003.94
2023-05-03 13:06:00,,0828.9,5.00,0.00,27.9,26.3,00.0,36.3,29.5,17.9,0000.0,0005.65,0011.70,0003.92
2023-05-03 13:07:00,,0829.0,4.99,0.00,27.9,26.3,00.0,36.3,29.5,17.9,0000.0,0005.57,0011.55,0003.90
2023-05-03 13:08:00,,0829.0,4.99,0.00,27.9,26.3,00.0,36.3,29.5,17.9,0000.0,0005.56,0012.36,0003.87
2023-05-03 13:09:00,,0829.0,5.00,0.00,27.9,26.2,00.0,36.3,29.5,17.9,0000.0,0005.52,0012.14,0003.86
2023-05-03 13:10:00,,0828.9,5.00,0.00,27.9,26.2,00.0,36.3,29.4,17.9,0000.0,0005.45,0011.81,0003.85
2023-05-03 13:11:00,,0828.9,5.01,0.00,27.9,26.2,00.0,36.3,29.4,18.0,0000.0,0005.33,0011.50,0003.84
2023-05-03 13:12:00,,0829.0,5.00,0.00,27.8,26.1,00.0,36.3,29.4,18.1,0000.0,0005.30,0011.42,0003.84
2023-05-03 13:13:00,,0829.0,5.01,0.00,27.9,26.2,00.0,36.3,29.4,18.2,0000.0,0005.29,0011.34,0003.83
2023-05-03 13:14:00,,0829.0,5.00,0.00,27.9,26.2,00.0,36.3,29.4,18.2,0000.0,0005.16,0011.16,0003.82
2023-05-03 13:15:00,,0829.0,5.00,0.00,27.9,26.2,00.0,36.3,29.5,18.5,0000.0,0005.08,0011.16,0003.80
2023-05-03 13:16:00,,0829.1,4.99,0.00,27.9,26.3,00.0,36.3,29.5,18.7,0000.0,0005.08,0011.13,0003.81
2023-05-03 13:17:00,,0829.0,5.00,0.00,27.9,26.3,00.0,36.3,29.5,18.7,0000.0,0005.14,0011.55,0003.81
2023-05-03 13:18:00,,0829.0,4.99,0.00,27.9,26.4,00.0,36.3,29.5,18.7,0000.0,0005.17,0011.97,0003.82
2023-05-03 13:19:00,,0829.1,5.00,0.00,27.9,26.4,00.0,36.3,29.5,18.5,0000.0,0005.13,0011.22,0003.83
2023-05-03 13:20:00,,0829.1,5.00,0.00,27.9,26.4,00.0,36.3,29.5,18.6,0000.0,0005.16,0011.16,0003.84
2023-05-03 13:21:00,,0829.1,5.01,0.00,27.9,26.4,00.0,36.3,29.5,18.7,0000.0,0005.19,0011.38,0003.85
2023-05-03 13:22:00,,0829.1,5.00,0.00,27.9,26.4,00.0,36.3,29.6,18.6,0000.0,0005.20,0011.53,0003.85
2023-05-03 13:23:00,,0829.1,5.01,0.00,27.9,26.4,00.0,36.3,29.5,18.6,0000.0,0005.21,0011.51,0003.85
2023-05-03 13:24:00,,0829.1,4.99,0.00,27.9,26.4,00.0,36.3,29.5,18.6,0000.0,0005.17,0011.71,0003.86
2023-05-03 13:25:00,,0829.1,5.00,0.00,27.9,26.4,00.0,36.3,29.5,18.6,0000.0,0005.21,0012.19,0003.88
2023-05-03 13:26:00,,0829.1,5.00,0.00,27.9,26.4,00.0,36.3,29.5,18.7,0000.0,0005.25,0012.19,0003.89
2023-05-03 13:27:00,,0829.1,5.01,0.00,27.9,26.4,00.0,36.3,29.6,18.8,0000.0,0005.29,0012.91,0003.91
2023-05-03 13:28:00,,0829.1,5.01,0.00,27.9,26.5,00.0,36.3,29.5,18.7,0000.0,0005.25,0012.84,0003.90
2023-05-03 13:29:00,,0829.1,5.00,0.00,28.0,26.5,00.0,36.3,29.6,18.6,0000.0,0005.27,0012.38,0003.91
2023-05-03 13:30:00,,0829.1,4.99,0.00,28.0,26.5,00.0,36.3,29.6,18.5,0000.0,0005.31,0012.40,0003.92
2023-05-03 13:31:00,,0829.1,5.00,0.00,28.0,26.5,00.0,36.3,29.6,18.3,0000.0,0005.29,0012.31,0003.92
2023-05-03 13:32:00,,0829.1,5.00,0.00,28.0,26.5,00.0,36.3,29.5,18.4,0000.0,0005.25,0012.17,0003.91
2023-05-03 13:33:00,,0829.1,5.00,0.00,28.0,26.5,00.0,36.3,29.6,18.4,0000.0,0005.26,0012.39,0003.91
2023-05-03 13:34:00,,0829.1,5.00,0.00,28.0,26.5,00.0,36.3,29.6,18.5,0000.0,0005.24,0012.46,0003.90
2023-05-03 13:35:00,,0829.1,5.01,0.00,28.0,26.6,00.0,36.3,29.6,18.3,0000.0,0005.21,0012.04,0003.89
2023-05-03 13:36:00,,0829.1,5.01,0.00,28.0,26.6,00.0,36.3,29.6,18.4,0000.0,0005.17,0011.43,0003.89
2023-05-03 13:37:00,,0829.1,5.00,0.00,28.0,26.5,00.0,36.3,29.6,18.3,0000.0,0005.17,0011.33,0003.86
2023-05-03 13:38:00,,0829.1,4.99,0.00,28.0,26.5,00.0,36.3,29.6,18.1,0000.0,0005.13,0010.56,0003.85
2023-05-03 13:39:00,,0829.1,4.99,0.00,28.0,26.5,00.0,36.3,29.6,18.6,0000.0,0005.13,0010.34,0003.84
2023-05-03 13:40:00,,0829.1,5.00,0.00,28.0,26.5,00.0,36.3,29.6,18.6,0000.0,0005.13,0010.57,0003.85
2023-05-03 13:41:00,,0829.1,5.00,0.00,28.0,26.5,00.0,36.3,29.6,18.4,0000.0,0005.11,0011.05,0003.84
2023-05-03 13:42:00,,0829.1,5.01,0.00,28.0,26.5,00.0,36.4,29.6,18.5,0000.0,0005.10,0011.04,0003.83
2023-05-03 13:43:00,,0829.1,5.01,0.00,28.0,26.4,00.0,36.3,29.6,18.6,0000.0,0005.15,0011.13,0003.83
2023-05-03 13:44:00,,0829.1,4.99,0.00,28.0,26.5,00.0,36.3,29.6,18.6,0000.0,0005.20,0011.11,0003.83
2023-05-03 13:45:00,,0829.1,4.99,0.00,28.0,26.5,00.0,36.3,29.6,18.5,0000.0,0005.20,0011.28,0003.83
2023-05-03 13:46:00,,0829.2,4.99,0.00,28.0,26.5,00.0,36.4,29.6,18.7,0000.0,0005.24,0011.33,0003.83
2023-05-03 13:47:00,,0829.2,5.01,0.00,28.0,26.5,00.0,36.4,29.6,18.6,0000.0,0005.27,0012.06,0003.82
2023-05-03 13:48:00,,0829.2,5.01,0.00,28.1,26.6,00.0,36.4,29.6,18.8,0000.0,0005.28,0012.48,0003.83
2023-05-03 13:49:00,,0829.2,5.01,0.00,28.1,26.6,00.0,36.4,29.6,18.8,0000.0,0005.26,0012.49,0003.83
2023-05-03 13:50:00,,0829.2,5.00,0.00,28.1,26.6,00.0,36.4,29.7,19.1,0000.0,0005.28,0012.68,0003.83
2023-05-03 13:51:00,,0829.2,4.99,0.00,28.1,26.7,00.0,36.4,29.6,18.8,0000.0,0005.28,0012.36,0003.82
2023-05-03 13:52:00,,0829.2,4.99,0.00,28.1,26.7,00.0,36.4,29.7,18.8,0000.0,0005.27,0011.90,0003.81
2023-05-03 13:53:00,,0829.1,5.00,0.00,28.1,26.7,00.0,36.4,29.7,18.6,0000.0,0005.30,0012.21,0003.81
2023-05-03 13:54:00,,0829.1,5.01,0.00,28.1,26.7,00.0,36.4,29.7,18.7,0000.0,0005.29,0012.28,0003.82
2023-05-03 13:55:00,,0829.1,5.01,0.00,28.1,26.7,00.0,36.4,29.7,18.8,0000.0,0005.29,0012.48,0003.82
2023-05-03 13:56:00,,0829.1,5.01,0.00,28.2,26.8,00.0,36.5,29.7,19.0,0000.0,0005.31,0012.29,0003.82
2023-05-03 13:57:00,,0829.1,5.00,0.00,28.2,26.8,00.0,36.5,29.7,19.0,0000.0,0005.27,0012.34,0003.81
2023-05-03 13:58:00,,0829.1,4.99,0.00,28.2,26.8,00.0,36.5,29.7,18.9,0000.0,0005.22,0011.97,0003.81
2023-05-03 13:59:00,,0829.1,5.00,0.00,28.2,26.8,00.0,36.5,29.7,19.0,0000.0,0005.20,0011.40,0003.79
